{"data":{"norad_id":67503,"intl_designator":"2026-012L","name":"STARLINK-36552","alt_names":[],"object_type":"PAYLOAD","status":"ACTIVE","operator":null,"country":"US","launch_date":"2026-01-18","launch_site_code":"AFETR","launch_vehicle":null,"mission":null,"orbit_class":"UNKNOWN","rcs_meters":null,"size_class":null,"mass_kg":null,"dimensions":null,"purposes":["comms"],"wikipedia_slug":null,"has_3d_model":false,"image_url":null,"decayed_at":null,"tle_current":{"epoch":"2026-09-19T19:43:37.814880Z","epoch_age_seconds":130800,"freshness":"FRESH","line1":"1 67503U 26012L   26262.82196545  .00013616  00000+0  50329-3 0  9998","line2":"2 67503  43.0049 297.8884 0001532 279.2076  80.8602 15.27588058 37455","mean_motion":15.27588058,"eccentricity":0.0001532,"inclination_deg":43.0049,"raan_deg":297.8884,"arg_perigee_deg":279.2076,"mean_anomaly_deg":80.8602,"bstar":0.00050329,"rev_number":3745,"period_min":94.266251458219,"perigee_km":481.97383758143,"apogee_km":484.0760976083,"semimajor_km":6861.1619675949,"source":"CELESTRAK","updated_at":"2026-09-20T09:00:43.558743Z"}}}